Skip Page Navigation
NASA JPL Caltech
NASA Logo - Jet Propulsion Laboratory + View the NASA Portal
+ Near-Earth Object (NEO) Program
Search JPL
JPL Home Earth Solar System Stars & Galaxies Technology
JPL Solar System Dynamics
BODIES ORBITS EPHEMERIDES TOOLS PHYSICAL DATA DISCOVERY FAQ SITE MAP
JPL Small-Body Database Browser
Search: [ help ]  
85159 (1988 DL)
Classification: Main-belt Asteroid          SPK-ID: 2085159
Ephemeris | Orbit Diagram | Orbital Elements | Physical Parameters | Discovery Circumstances | Close-Approach Data ]

[ show orbit diagram ]
Orbital Elements at Epoch 2457000.5 (2014-Dec-09.0) TDB
Reference: JPL 11 (heliocentric ecliptic J2000)
 Element Value Uncertainty (1-sigma)   Units 
e .1199184809710453 7.1249e-08  
a 2.799233769375463 2.8512e-08 AU
q 2.463553907869104 2.0863e-07 AU
i 8.219453953844477 8.107e-06 deg
node 252.7642625205119 5.1272e-05 deg
peri 189.7776256909816 6.4099e-05 deg
M 319.1720952784651 3.9167e-05 deg
tp 2457194.504485781101
(2015-Jun-21.00448578)
0.00018746 JED
period 1710.634316346836
4.68
2.6136e-05
7.156e-08
d
yr
n .210448251014163 3.2153e-09 deg/d
Q 3.134913630881822 3.1931e-08 AU
  Orbit Determination Parameters
   # obs. used (total)      709  
   data-arc span      9854 days (26.98 yr)  
   first obs. used      1988-02-22  
   last obs. used      2015-02-14  
   planetary ephem.      DE431  
   SB-pert. ephem.      SB431-BIG16  
   condition code      0  
   fit RMS      .5084  
   data source      ORB  
   producer      Otto Matic  
   solution date      2015-Apr-07 19:27:17  

Additional Information
 Earth MOID = 1.47947 AU 
 T_jup = 3.300 
[ show covariance matrix ]

Ephemeris | Orbit Diagram | Orbital Elements | Physical Parameters | Discovery Circumstances | Close-Approach Data ]

Physical Parameter Table
Parameter Symbol Value Units Sigma Reference Notes
absolute magnitude H 14.2 mag n/a MPO266307  

85159 (1988 DL)          Discovered 1988-Feb-22 by McNaught, R. H. at Siding Spring
Reference: 20040830/Numbers.arcLast Updated: 2004-09-06

[ show close-approach data ]
Alternate Designations
 1988 DL = 2000 SC168 
Ephemeris | Orbit Diagram | Orbital Elements | Physical Parameters | Discovery Circumstances | Close-Approach Data ]
ABOUT SSD CREDITS/AWARDS PRIVACY/COPYRIGHT GLOSSARY LINKS
FirstGov 2015-May-28 06:04 UT
(server date/time)  
NASA Home Page
Site Manager:   Ryan S. Park
Webmaster  Alan B. Chamberlin